Погода в Рубцовске

Погода в Рубцовске : погода сейчас, прогноз погоды и архив. Всё, что Вы хотите узнать о погоде в Рубцовске!

Хотите узнать прогноз погоды в Рубцовске? Тогда Вам сюда: Погода в Рубцовске

Поиск расширенной информации на нашем сайте:

Полезная информация: ульяновская фабрика межкомнатных дверей

Другие новости

Новости СМИ2

Главная страница сайта

Новости сайта

02.10.2013

Напоминаем, что на нашем новом сайте вы можете получить высокодетализированные прогнозы погоды по пунктам России, СНГ и мира (включающие важные для авиации метеовеличины, такие как направление и скорость ветра, видимость, явления погоды, количество и форма облачности, нижняя и верхняя граница облачности), а также ознакомиться с разнообразными материалами по авиационной метеорологии и подборкой полезных ссылок на эту тему.

Сайт Метеоцентр.Азия посвящён разработке технологий оптимизации авиаметеорологического обслуживания, включая проектирование и перспективное создание нескольких автоматизированных авиаметеорологических систем:
- система выпуска высокодетальных прогностических карт явлений погоды для нижнего воздушного пространства по России и ближнему зарубежью;
- система верификации прогнозов TAF (выпускаемых синоптиками официальных АМСГ РФ и ближнего зарубежья) и AUTOTAF (выпускаемых сайтом Метеоцентр.Азия) - выявление ошибок, онлайн-сопоставление с фактической погодой METAR, автоматическое внесение коррективов в прогнозы при резком отклонении фактической погоды от прогноза, подсчёт оправдываемости прогнозов по элементам и в целом;
- система обработки, анализа и отображения авиаметеорологической информации для применения провайдерами метеорологической информации.

Рекомендуем: нужен офис? купить офис в раойне 1-я Брестская улица интересные предложения

Погода в Рубцовске - сегодня

Время (UTC), дата Ветер
(°,м/с) 
Видим.   Явления Облачность Т
(°С)
Тd
(°С)
f(%) Тe
(°С)
Pmin
(гПа)
dP
(гПа)
Po
(мм)
O2
(г/м3)
Тmin Tmax R s Состояние
почвы
18 22.05.17 тихо ()   20000 м    ясно 
+12.3 +4.4 58 +12  1012.5  -0.4  740  285           
21 22.05.17 150 (ЮВ) 20000 м    ясно 
+15.9 +2.1 39 +16  1011.2  -1  739  281           
00 23.05.17 180 (Ю) 20000 м    4/0 верхняя 
[Ci fib]
+16.8 +4.1 43 +17  1010.7  -0.4  739  280  +10.8        сухая 
03 23.05.17 180 (Ю) 5{10}  20000 м    5/0 верхняя 
[Ci fib]
+23 +5.1 31 +23  1009.3  -0.9  738  274           
06 23.05.17 170 (Ю) 7-11{12}  20000 м    1/0 верхняя 
[Ci sp]
+28.6 +0.1 16 +29  1007.2  -1.6  737  269           
09 23.05.17 190 (Ю) 9-14{16}  20000 м    1/0 верхняя 
[Ci sp]
+30.9 -1.4 12 +31  1004.3  -2.7  735  266           
12 23.05.17 170 (Ю) 6-10{15}  20000 м    1/0 верхняя 
[Ci sp]
+31.8 +0.4 13 +32  1002.2  -1.9  734  265    +31.8       
15 23.05.17 170 (Ю) 6{10}  20000 м    10/3 1000 м верхняя 
[Sc|Ci sp]
+27.4 +4.3 23 +27  1002.5  734  268           
18 23.05.17 240 (ЮЗ) 5{13}  20000 м  в посл. час гроза  10/10 600 м кучево-дожд. 
[Cb cap]
+22.9 +11.3 48 +26  1006.7  3.8  736  272           
21 23.05.17 200 (Ю) 20000 м    6/0 средняя 
[Ac trans]
+18.7 +11.3 62 +23  1009.6  2.4  738  276           
00 24.05.17 190 (Ю) 20000 м    10/0 средняя, верхняя 
[Ac lent|Ci sp]
+17 +11 68 +20  1011.3  1.5  739  278  +16.4        сухая 
03 24.05.17 180 (Ю) 20000 м    3/0 средняя, верхняя 
[Ac cast|Cc]
+22.1 +12.5 54 +27  1011.4  0.5  740  273           
06 24.05.17 210 (ЮЗ) 6-10{12}  20000 м    6/5 1000 м верхняя 
[Cu Sc|Ci fib]
+26.8 +9.3 33 +27  1009.9  -1  739  270           
09 24.05.17 200 (Ю) 5{14}  20000 м    8/8 1080 м 
[Cu Sc]
+27.5 +8.8 31 +28  1007.9  -1.9  737  268           
12 24.05.17 220 (ЮЗ) 6-10{13}  20000 м    3/3 600 м кучево-дожд. 
[Cb cap]
+25.6 +8.8 34 +26  1007.1  -1  737  270    +28       
15 24.05.17 230 (ЮЗ) 2{15}  20000 м    10/0 средняя, верхняя 
[Ac cast|Cc]
+19.1 +12.1 64 +24  1009.7  738  276           
18 24.05.17 300 (СЗ) 20000 м    10/0 средняя, верхняя 
[Ac und|Ci sp]
+16 +10.3 69 +19  1012.3  2.2  740  280           
21 24.05.17 250 (З) 20000 м  слаб. дождь  10/8 1080 м средняя 
[Sc|Ac und]
+14.9 +9.8 71 +17  1013.9  1.6  741  281           
00 25.05.17 310 (СЗ) 20000 м  {дождь}  8/3 600 м средняя, верхняя 
[Sc|Ac cast|Cc]
+10.2 +6.5 78 +11  1016.6  2.1  743  287  +10.2    0.1    влажная 
03 25.05.17 310 (СЗ) 20000 м    3/0 верхняя 
[Ci sp]
+12.9 +3.8 54 +13  1017.9  1.5  744  286  +10.1         
06 25.05.17 250 (З) 20000 м    3/0 верхняя 
[Ci sp]
+16.7 +1.1 35 +18  1017.6  0.1  744  282           
09 25.05.17 300 (СЗ) 20000 м    6/3 1000 м верхняя 
[Cu hum|Ci sp]
+18.7 -2 24 +19  1016.8  -0.6  743  281           
12 25.05.17 290 (З) 20000 м    5/1 1000 м верхняя 
[Cu hum|Ci]
+19.3 -1.1 25 +20  1016.1  -0.7  743  280    +19.7       
15 25.05.17 290 (З) 20000 м    ясно 
+12.3 +0.7 45 +12  1017.1  0.4  743  286           
18 25.05.17 300 (СЗ) 20000 м    ясно 
+8.5 +1.5 61 +8  1018.2  0.7  744  290           
Время (UTC), дата Ветер
(°,м/с) 
Видим.   Явления Облачность Т
(°С)
Тd
(°С)
f(%) Тe
(°С)
Pmin
(гПа)
dP
(гПа)
Po
(мм)
O2
(г/м3)
Тmin Tmax R s Состояние
почвы

Для получения пояснительной информации подведите курсор к названию столбца.

ПОГОДА в Рубцовске - архив

Всё, что Вы хотите узнать о погоде в Рубцовске - удобно и подробно!

Выберите нужную дату (начиная с 1 января 2015* года) и нажмите кнопку "Найти".
Будут отображены архивные сводки погоды по пункту Рубцовск, начиная с указанной даты.


Отображать данные в формате CSV (для использования в таблицах Excel)


Внимание! Наш архив погоды предназначен исключительно для личного некоммерческого использования в познавательных целях. Если Вам необходимы официальные справки о состоянии погоды (для производственных, юридических, коммерческих и т.п. целей), обращайтесь в органы Росгидромета.

*Примечание: данная дата относится к архиву по метеостанциям СССР (Россия, СНГ, Балтия).
Архив по метеостанциям Зарубежной Европы и Азии (кроме Китая) хранится 10 дней, по другим регионам земного шара (Китай, Африка, Америка, Австралия, Океания) - 1 день.

Рубцовск - район местоположения метеостанции


Название, широта, долгота, высота метеостанции:
Рубцовск 51.5°ш. 81.2°д. 219 м над ур. моря [Российская Федерация]

Дополнительная информация

В oтличие oт бoльшинства пoгoдных сайтoв мы публикуем пoдрoбную метеoинфoрмацию в детальнoм прoфессиoнальнoм фoрмате.

Характеристики температуры и влажнoсти вoздуха измеряются на высoте 2 м в тени вдали oт зданий и деревьев.
Скoрoсть ветра измеряется на высoте 10 м (на урoвне рoста челoвека скoрoсть ветра ниже в 1.5-2 раза). Если метеoстанция нахoдится в гoрoде или в лесу, тo скoрoсть ветра занижена на 2-4 м/с пo сравнению с oткрытым местoм. Скoрoсть ветра над акватoриями крупных рек и oзёр, а также на вершинах хoлмoв на 2-5 м/с выше, чем в oбычных услoвиях.
Атмoсфернoе давление в разных тoчках местнoсти мoжет значительнo oтличаться oт давления на метеoстанции, в зависимoсти oт услoвий рельефа (при пoдъёме на 10 м давление пoнижается примернo на 1 мм рт.ст.).